Location: Kaarina
(60.4167°N, 22.4167°E)
Time: 19:04:19
(UTC+03:00)

NOSS 3-1 (A) - Pass Details

Date: 24 August 2019
Orbit: 774 x 1439 km, 63.4° (Epoch: 03 September)

Event Time Altitude Azimuth Distance (km) Brightness Sun altitude
Rises 22:54:12 0° 304° (WNW) 3,825 8.2 -12.0°
Reaches altitude 10° 22:56:44 10° 299° (WNW) 2,960 7.2 -12.2°
Maximum altitude 23:03:36 52° 226° (SW) 1,503 4.4 -12.7°
Enters shadow 23:10:04 16° 157° (SSE) 2,934 5.4 -13.2°
